sat.trackr.live / text

‹ back to catalog

WGS F6 (USA 244)

NORAD 39222 · 2013-041A

PAYLOAD ACTIVE UNKNOWN

§ Identity

Operator
Country
US
Launch date
2013-08-08
Launch site
AFETR
Launch vehicle
Mass (kg)
RCS (m²)
35.80

Purposes: comms

External: N2YO · Heavens-Above · Gunter

§ Orbital elements

Epoch: 2026-09-12T02:59:52.019232Z

Period
1,436.11 min
Inclination
0.0243°
Eccentricity
0.0000114
Mean motion
1.00271181 rev/d
Perigee alt
35,786.3 km
Apogee alt
35,787.2 km
Semi-major
42,164.9 km
B*
0.0000e+0
RAAN
160.9088°
Arg perigee
172.3087°
Mean anomaly
287.6666°
Rev number
4,693

§ Raw data

WGS F6 (USA 244)1 39222U 13041A   26255.12490763  .00000000  00000+0  00000+0 0  99972 39222   0.0243 160.9088 0000114 172.3087 287.6666  1.00271181 46939

JSON: /api/v1/satellites/39222 · /tle

For live sub-satellite position, see the globe view (requires WebGL).

§ Visibility from observer

Set your observer location to see the next 7 days of passes ≥ 10°. The values pass through the URL so the page stays shareable.

No JS? Fill the form by hand. The geolocation button needs JavaScript.